When you browse on this site, cookies collect data to enhance your experience and personalize the content and advertising you see.
Visit our Privacy Policy to learn more. By continuing to use the site, you agree to this use of cookies and data.
  • In United Kingdom
  • List of Countries
  • For 7 days
  • Water Temperature
  • Weather Map
  • Weather Widgets
  • user-avatar
    Login

    Hourly Weather Florianópolis

    Today, 19 January, Sunday

    Time Temperature Precipitation Wind Pressure Humidity
    00:00 +23°C° 0 mm 2 mps 764 mmHg 79%
    01:00 +23°C° 0 mm 2 mps 764 mmHg 80%
    02:00 +23°C° 0 mm 2 mps 763 mmHg 81%
    03:00 +23°C° 0 mm 2 mps 763 mmHg 82%
    04:00 +21°C° 0 mm 2 mps 763 mmHg 84%
    05:00 +21°C° 0 mm 2 mps 763 mmHg 86%
    06:00 +20°C° 0 mm 2 mps 763 mmHg 88%
    07:00 +23°C° 0 mm 2 mps 763 mmHg 79%
    08:00 +26°C° 0 mm 2 mps 764 mmHg 70%
    09:00 +28°C° 0 mm 2 mps 764 mmHg 61%
    10:00 +28°C° 0 mm 3 mps 764 mmHg 62%
    11:00 +28°C° 0 mm 3 mps 763 mmHg 63%
    12:00 +28°C° 0 mm 4 mps 763 mmHg 63%
    13:00 +29°C° 0 mm 4 mps 763 mmHg 63%
    14:00 +29°C° 0 mm 4 mps 762 mmHg 62%
    15:00 +29°C° 0 mm 4 mps 762 mmHg 61%
    16:00 +28°C° 0 mm 4 mps 762 mmHg 64%
    17:00 +28°C° 0 mm 4 mps 761 mmHg 68%
    18:00 +27°C° 0 mm 4 mps 761 mmHg 72%
    19:00 +26°C° 0 mm 3 mps 762 mmHg 75%
    20:00 +25°C° 0 mm 3 mps 762 mmHg 78%
    21:00 +25°C° 0 mm 3 mps 762 mmHg 82%
    22:00 +24°C° 0.1 mm 3 mps 762 mmHg 84%
    23:00 +24°C° 0.1 mm 3 mps 762 mmHg 87%

    Tomorrow, 20 January, Monday

    Time Temperature Precipitation Wind Pressure Humidity
    00:00 +24°C° 0.1 mm 3 mps 762 mmHg 89%
    01:00 +24°C° 0.2 mm 3 mps 762 mmHg 90%
    02:00 +23°C° 0.2 mm 2 mps 762 mmHg 90%
    03:00 +23°C° 0.2 mm 2 mps 761 mmHg 90%
    04:00 +23°C° 0.1 mm 2 mps 761 mmHg 91%
    05:00 +23°C° 0.1 mm 2 mps 761 mmHg 91%
    06:00 +23°C° 0.1 mm 2 mps 761 mmHg 92%
    07:00 +24°C° 0.1 mm 2 mps 761 mmHg 87%
    08:00 +25°C° 0.1 mm 2 mps 762 mmHg 83%
    09:00 +26°C° 0.1 mm 2 mps 762 mmHg 78%
    10:00 +27°C° 0.1 mm 3 mps 761 mmHg 73%
    11:00 +28°C° 0.1 mm 3 mps 761 mmHg 67%
    12:00 +29°C° 0.1 mm 4 mps 761 mmHg 62%
    13:00 +30°C° 0 mm 4 mps 760 mmHg 61%
    14:00 +30°C° 0 mm 4 mps 760 mmHg 61%
    15:00 +30°C° 0 mm 4 mps 759 mmHg 60%
    16:00 +29°C° 0 mm 4 mps 759 mmHg 64%
    17:00 +28°C° 0 mm 4 mps 759 mmHg 69%
    18:00 +26°C° 0 mm 3 mps 758 mmHg 74%
    19:00 +26°C° 0 mm 3 mps 759 mmHg 76%
    20:00 +25°C° 0 mm 3 mps 759 mmHg 78%
    21:00 +25°C° 0 mm 3 mps 760 mmHg 80%
    22:00 +24°C° 0.1 mm 3 mps 760 mmHg 82%
    23:00 +24°C° 0.1 mm 3 mps 760 mmHg 84%

    Day after tomorrow, 21 January, Tuesday

    Time Temperature Precipitation Wind Pressure Humidity
    00:00 +24°C° 0.1 mm 3 mps 760 mmHg 86%
    01:00 +24°C° 0.1 mm 3 mps 760 mmHg 87%
    02:00 +24°C° 0.1 mm 3 mps 759 mmHg 88%
    03:00 +24°C° 0.1 mm 3 mps 759 mmHg 90%
    04:00 +23°C° 0.1 mm 2 mps 759 mmHg 89%
    05:00 +23°C° 0.1 mm 2 mps 759 mmHg 88%
    06:00 +23°C° 0.1 mm 2 mps 759 mmHg 88%
    07:00 +24°C° 0 mm 2 mps 759 mmHg 83%
    08:00 +25°C° 0 mm 2 mps 759 mmHg 78%
    09:00 +26°C° 0 mm 2 mps 759 mmHg 73%
    10:00 +27°C° 0 mm 2 mps 759 mmHg 66%
    11:00 +29°C° 0 mm 3 mps 758 mmHg 59%
    12:00 +30°C° 0 mm 4 mps 758 mmHg 52%
    13:00 +30°C° 0 mm 4 mps 757 mmHg 52%
    14:00 +30°C° 0 mm 4 mps 757 mmHg 53%
    15:00 +30°C° 0 mm 4 mps 756 mmHg 53%
    16:00 +29°C° 0 mm 4 mps 756 mmHg 57%
    17:00 +28°C° 0 mm 4 mps 756 mmHg 61%
    18:00 +27°C° 0 mm 4 mps 756 mmHg 64%
    19:00 +26°C° 0 mm 3 mps 757 mmHg 72%
    20:00 +24°C° 0 mm 3 mps 757 mmHg 80%
    21:00 +23°C° 0 mm 2 mps 758 mmHg 87%
    22:00 +23°C° 0.2 mm 2 mps 758 mmHg 87%
    23:00 +24°C° 0.2 mm 2 mps 758 mmHg 86%

    22 January, Wednesday

    Time Temperature Precipitation Wind Pressure Humidity
    00:00 +24°C° 0.2 mm 3 mps 758 mmHg 85%
    01:00 +24°C° 0.6 mm 3 mps 757 mmHg 87%
    02:00 +24°C° 0.6 mm 3 mps 757 mmHg 90%
    03:00 +24°C° 0.6 mm 3 mps 757 mmHg 92%
    04:00 +24°C° 0.7 mm 3 mps 757 mmHg 92%
    05:00 +24°C° 0.7 mm 3 mps 757 mmHg 92%
    06:00 +24°C° 0.7 mm 2 mps 757 mmHg 91%
    07:00 +24°C° 1.1 mm 2 mps 757 mmHg 91%
    08:00 +24°C° 1.1 mm 2 mps 757 mmHg 91%
    09:00 +24°C° 1.1 mm 2 mps 757 mmHg 91%
    10:00 +24°C° 1.4 mm 1 mps 758 mmHg 91%
    11:00 +23°C° 1.4 mm 1 mps 758 mmHg 91%
    12:00 +23°C° 1.4 mm 1 mps 758 mmHg 91%
    13:00 +23°C° 1 mm 1 mps 757 mmHg 91%
    14:00 +21°C° 1 mm 2 mps 757 mmHg 90%
    15:00 +21°C° 1 mm 2 mps 757 mmHg 90%
    16:00 +20°C° 0.9 mm 2 mps 757 mmHg 91%
    17:00 +20°C° 0.9 mm 2 mps 757 mmHg 92%
    18:00 +19°C° 0.9 mm 2 mps 757 mmHg 93%
    19:00 +19°C° 0.5 mm 2 mps 758 mmHg 92%
    20:00 +19°C° 0.5 mm 2 mps 758 mmHg 91%
    21:00 +19°C° 0.5 mm 2 mps 758 mmHg 90%
    22:00 +19°C° 0.7 mm 2 mps 758 mmHg 91%
    23:00 +19°C° 0.7 mm 2 mps 758 mmHg 91%

    23 January, Thursday

    Time Temperature Precipitation Wind Pressure Humidity
    00:00 +19°C° 0.7 mm 2 mps 757 mmHg 91%
    01:00 +19°C° 0 mm 2 mps 757 mmHg 91%
    02:00 +20°C° 0 mm 1 mps 756 mmHg 90%
    03:00 +21°C° 0 mm 1 mps 756 mmHg 89%
    04:00 +21°C° 0 mm 1 mps 756 mmHg 89%
    05:00 +20°C° 0 mm 2 mps 756 mmHg 88%
    06:00 +20°C° 0 mm 2 mps 756 mmHg 88%
    07:00 +21°C° 0 mm 2 mps 756 mmHg 85%
    08:00 +22°C° 0 mm 3 mps 756 mmHg 82%
    09:00 +22°C° 0 mm 3 mps 757 mmHg 79%
    10:00 +24°C° 0 mm 3 mps 756 mmHg 77%
    11:00 +23°C° 0 mm 4 mps 756 mmHg 76%
    12:00 +25°C° 0 mm 4 mps 756 mmHg 75%
    13:00 +25°C° 0.1 mm 4 mps 755 mmHg 76%
    14:00 +25°C° 0.1 mm 4 mps 755 mmHg 76%
    15:00 +25°C° 0.1 mm 4 mps 754 mmHg 77%
    16:00 +25°C° 0.1 mm 4 mps 754 mmHg 80%
    17:00 +25°C° 0.1 mm 4 mps 754 mmHg 82%
    18:00 +25°C° 0.1 mm 4 mps 754 mmHg 85%
    19:00 +23°C° 0.2 mm 4 mps 754 mmHg 87%
    20:00 +22°C° 0.2 mm 4 mps 754 mmHg 89%
    21:00 +22°C° 0.2 mm 3 mps 754 mmHg 92%
    22:00 +22°C° 0.4 mm 3 mps 754 mmHg 91%
    23:00 +22°C° 0.4 mm 4 mps 754 mmHg 91%

    24 January, Friday

    Time Temperature Precipitation Wind Pressure Humidity
    00:00 +21°C° 0.4 mm 4 mps 754 mmHg 91%
    01:00 +21°C° 0.5 mm 4 mps 754 mmHg 91%
    02:00 +21°C° 0.5 mm 4 mps 753 mmHg 91%
    03:00 +21°C° 0.5 mm 5 mps 753 mmHg 91%
    04:00 +21°C° 0.4 mm 4 mps 753 mmHg 92%
    05:00 +21°C° 0.4 mm 4 mps 753 mmHg 92%
    06:00 +21°C° 0.4 mm 4 mps 753 mmHg 92%
    07:00 +22°C° 0.2 mm 4 mps 753 mmHg 85%
    08:00 +25°C° 0.2 mm 4 mps 754 mmHg 77%
    09:00 +26°C° 0.2 mm 3 mps 754 mmHg 70%
    10:00 +27°C° 0.2 mm 4 mps 754 mmHg 72%
    11:00 +27°C° 0.2 mm 5 mps 754 mmHg 75%
    12:00 +27°C° 0.2 mm 5 mps 754 mmHg 77%
    13:00 +28°C° 0.3 mm 5 mps 754 mmHg 73%
    14:00 +28°C° 0.3 mm 6 mps 753 mmHg 70%
    15:00 +28°C° 0.3 mm 6 mps 753 mmHg 66%
    16:00 +28°C° 0 mm 6 mps 753 mmHg 66%
    17:00 +28°C° 0 mm 6 mps 754 mmHg 66%
    18:00 +27°C° 0 mm 6 mps 754 mmHg 65%
    19:00 +26°C° 0 mm 6 mps 754 mmHg 71%
    20:00 +23°C° 0 mm 5 mps 755 mmHg 77%
    21:00 +22°C° 0 mm 5 mps 755 mmHg 84%
    22:00 +21°C° 0 mm 4 mps 756 mmHg 84%
    23:00 +21°C° 0 mm 4 mps 756 mmHg 85%
    Show more